TimePDT,TemperatureF,Dew PointF,Humidity,Sea Level PressureIn,VisibilityMPH,Wind Direction,Wind SpeedMPH,Gust SpeedMPH,PrecipitationIn,Events,Conditions,WindDirDegrees,DateUTC
12:53 AM,51.1,48.0,89,30.07,10.0,Calm,Calm,-,N/A,,Clear,0,2013-08-30 07:53:00
1:53 AM,50.0,48.0,93,30.07,10.0,SSE,3.5,-,N/A,,Clear,150,2013-08-30 08:53:00
2:53 AM,48.0,46.0,93,30.07,10.0,Calm,Calm,-,N/A,,Clear,0,2013-08-30 09:53:00
3:53 AM,48.0,45.0,89,30.08,10.0,NNE,3.5,-,N/A,,Clear,30,2013-08-30 10:53:00
4:53 AM,46.0,45.0,96,30.09,2.5,Calm,Calm,-,N/A,,Clear,0,2013-08-30 11:53:00
5:13 AM,46.4,44.6,93,30.19,10.0,Calm,Calm,-,N/A,,Clear,0,2013-08-30 12:13:00
5:36 AM,46.4,44.6,93,30.19,1.8,Calm,Calm,-,N/A,,Clear,0,2013-08-30 12:36:00
5:38 AM,46.4,44.6,93,30.19,1.0,Calm,Calm,-,N/A,,Mist,0,2013-08-30 12:38:00
5:41 AM,46.4,44.6,93,30.19,0.5,Calm,Calm,-,N/A,Fog,Fog,0,2013-08-30 12:41:00
5:48 AM,44.6,42.8,93,30.20,0.2,Calm,Calm,-,N/A,Fog,Fog,0,2013-08-30 12:48:00
5:53 AM,44.1,43.0,96,30.11,0.5,Calm,Calm,-,N/A,Fog,Fog,0,2013-08-30 12:53:00
6:21 AM,44.6,42.8,93,30.20,1.2,Calm,Calm,-,N/A,,Partly Cloudy,0,2013-08-30 13:21:00
6:25 AM,42.8,42.8,100,30.20,0.8,Calm,Calm,-,N/A,,Mist,0,2013-08-30 13:25:00
6:33 AM,42.8,42.8,100,30.20,0.8,Calm,Calm,-,N/A,,Clear,0,2013-08-30 13:33:00
6:43 AM,44.6,44.6,100,30.20,1.0,Calm,Calm,-,N/A,,Mist,0,2013-08-30 13:43:00
6:53 AM,43.0,42.1,97,30.12,1.0,Calm,Calm,-,N/A,,Mist,0,2013-08-30 13:53:00
7:09 AM,44.6,44.6,100,30.21,10.0,Calm,Calm,-,N/A,,Clear,0,2013-08-30 14:09:00
7:53 AM,53.1,50.0,89,30.13,10.0,Calm,Calm,-,N/A,,Clear,0,2013-08-30 14:53:00
8:53 AM,59.0,52.0,78,30.13,10.0,Calm,Calm,-,N/A,,Clear,0,2013-08-30 15:53:00
9:53 AM,64.9,52.0,63,30.12,10.0,Calm,Calm,-,N/A,,Clear,0,2013-08-30 16:53:00
10:53 AM,69.1,50.0,51,30.12,10.0,SE,3.5,-,N/A,,Clear,130,2013-08-30 17:53:00
11:53 AM,73.0,48.9,42,30.09,10.0,SSW,4.6,-,N/A,,Clear,210,2013-08-30 18:53:00
12:53 PM,75.9,46.0,35,30.08,10.0,Variable,5.8,-,N/A,,Clear,0,2013-08-30 19:53:00
1:53 PM,79.0,45.0,30,30.06,10.0,Calm,Calm,-,N/A,,Clear,0,2013-08-30 20:53:00
2:53 PM,81.0,45.0,28,30.04,10.0,East,4.6,-,N/A,,Clear,80,2013-08-30 21:53:00
3:53 PM,82.0,44.1,26,30.01,10.0,East,4.6,-,N/A,,Clear,100,2013-08-30 22:53:00
4:53 PM,82.0,44.1,26,30.00,10.0,SSE,4.6,-,N/A,,Clear,160,2013-08-30 23:53:00
5:53 PM,82.9,44.1,25,29.99,10.0,Calm,Calm,-,N/A,,Clear,0,2013-08-31 00:53:00
6:53 PM,82.0,39.0,22,29.99,10.0,NNW,9.2,-,N/A,,Clear,330,2013-08-31 01:53:00
7:53 PM,72.0,41.0,33,29.99,10.0,NW,4.6,-,N/A,,Clear,310,2013-08-31 02:53:00
8:53 PM,71.1,48.9,45,29.99,10.0,NNW,9.2,-,N/A,,Clear,340,2013-08-31 03:53:00
9:53 PM,66.9,52.0,59,30.00,10.0,West,8.1,-,N/A,,Clear,270,2013-08-31 04:53:00
10:53 PM,60.1,51.1,72,30.01,10.0,Calm,Calm,-,N/A,,Clear,0,2013-08-31 05:53:00
11:53 PM,53.1,48.9,86,30.02,10.0,Calm,Calm,-,N/A,,Clear,0,2013-08-31 06:53:00